Starlink 30140

operational
NORAD ID: 57458 Int'l Des: 2023-107 Owner: SPXS Country: US Constellation: starlink
LEOCIRCULAR

Über Starlink 30140

Beschreibung wird geladen...

Live-Position

3D-Globus wird geladen...

Nächste Überflüge

Höhenverlauf

Altitude vs Time

uPlot chart will show altitude changes over time

Zweizeiliger Elementsatz

1 57458U 23107B 25352.53901353 .00000865 00000-0 79078-4 0 9992
2 57458 43.0032 60.1404 0001425 287.7145 72.3542 15.02532545132904
Epoch: 18. Dez. 2025 • Age: 16 hours

Aktueller Status

Höhe 565.0 km
Geschwindigkeit 7.58 km/s
Subsatellitenpunkt -26.75°S, 134.62°W
Startdatum 28. Juli 2023
Alter 2.3 years
Typ internet

Technische Details

Klassifizierung Payload
Masse 730.00 kg
Trockenmasse 700.00 kg
Gesamtmasse 730.00 kg
Länge 0.30 m
Durchmesser 4.10 m
Spannweite 29.00 m
Form Box + pan
Hersteller SPXS
Bus-Typ Starlink V2M
Phasenstatus In Orbit
Besitzer/Staat SPXS/US

Große Konstellationen

Loading constellations...